This is the latest recevied weather packets stored in our database for station/object AB4BJ-10. If no packets are shown the sender has not sent any weather packets the latest 10 day(s).
| Time | Temp. | Humidity | Pressure | Rain* | Wind** | Luminosity | Snow |
|---|---|---|---|---|---|---|---|
| 1788547663 | 33.89° C | 64% | 1011.8 hPa | 0 mm | - | - | - |
| 1788547363 | 33.89° C | 63% | 1011.9 hPa | 0 mm | - | - | - |
| 1788547065 | 34.44° C | 62% | 1012 hPa | 0 mm | - | - | - |
| 1788546462 | 35° C | 60% | 1012 hPa | 0 mm | - | - | - |
| 1788545947 | 33.33° C | 62% | 1012.2 hPa | 0 mm | - | - | - |
| 1788545865 | 33.33° C | 62% | 1012.2 hPa | 0 mm | - | - | - |
| 1788545696 | 33.33° C | 63% | 1012.3 hPa | 0 mm | - | - | - |
| 1788545561 | 33.33° C | 63% | 1012.3 hPa | 0 mm | - | - | - |
| 1788545261 | 33.89° C | 64% | 1012.3 hPa | 0 mm | - | - | - |
| 1788544660 | 33.33° C | 66% | 1012.4 hPa | 0 mm | - | - | - |
| 1788544360 | 33.33° C | 65% | 1012.4 hPa | 0 mm | - | - | - |
| 1788544060 | 33.33° C | 64% | 1012.5 hPa | 0 mm | - | - | - |
| 1788543759 | 33.33° C | 65% | 1012.7 hPa | 0 mm | - | - | - |
| 1788543159 | 33.33° C | 64% | 1012.7 hPa | 0 mm | - | - | - |
| 1788542859 | 32.78° C | 67% | 1012.8 hPa | 0 mm | - | - | - |
| 1788541958 | 32.22° C | 66% | 1013 hPa | 0 mm | - | - | - |
| 1788541357 | 31.67° C | 68% | 1013.2 hPa | 0 mm | - | - | - |
| 1788541057 | 31.67° C | 67% | 1013.3 hPa | 0 mm | - | - | - |
| 1788540810 | 31.67° C | 67% | 1013.3 hPa | 0 mm | - | - | - |
| 1788540756 | 31.67° C | 67% | 1013.3 hPa | 0 mm | - | - | - |
| 1788540205 | 31.67° C | 68% | 1013.4 hPa | 0 mm | - | - | - |
| 1788540156 | 31.67° C | 68% | 1013.4 hPa | 0 mm | - | - | - |
| 1788539896 | 31.11° C | 68% | 1013.4 hPa | 0 mm | - | - | - |
| 1788539857 | 31.11° C | 68% | 1013.4 hPa | 0 mm | - | - | - |
| 1788539555 | 31.11° C | 68% | 1013.4 hPa | 0 mm | - | - | - |
* Rain latest hour (hover to see other rain measurements)
** Current wind speed in m/s (hover to see current wind gust speed)